Regional Weather Roundup
Issued by NWS Little Rock, AR

Home | Current Version | Previous Version | Graphics & Text | Print | Product List | Glossary On
Versions: 1 2 3 4 5 6 7 8 9 10 11 12 13 14 15 16 17 18 19 20 21 22 23 24 25 26 27 28 29 30 31 32 33 34 35 36 37 38 39 40 41 42 43 44 45 46 47 48 49
000
ASUS44 KLZK 020205
RWRLZK

WEATHER ROUNDUP FOR ARKANSAS
NATIONAL WEATHER SERVICE LITTLE ROCK AR
900 PM CDT MON JUN 01 2015

NOTE: "FAIR" INDICATES FEW OR NO CLOUDS BELOW 12,000 FEET WITH NO
SIGNIFICANT WEATHER AND/OR OBSTRUCTIONS TO VISIBILITY.

ARZ001-003-010-029-020300-
NORTHWEST ARKANSAS

CITY           SKY/WX    TMP DP  RH WIND       PRES   REMARKS
FAYETTEVILLE   MOCLDY    68  61  78 E5        30.06S
FORT SMITH     CLEAR     75  57  53 CALM      30.01S
HARRISON       CLOUDY    66  59  78 SE5       30.10R
BENTONVILLE    CLEAR     68  57  68 E6        30.07S
ROGERS         CLEAR     67  60  78 E6        30.08S
SILOAM SPGS    CLEAR     66  55  68 NE3       30.07S
HIGHFILL       CLEAR     67  60  78 NE5       30.06S
SPRINGDALE     CLEAR     68  61  77 NE7       30.08S
$$

ARZ004-005-016-020300-
NORTH CENTRAL ARKANSAS

CITY           SKY/WX    TMP DP  RH WIND       PRES   REMARKS
BATESVILLE     MOCLDY    64  61  88 CALM      30.09R
FLIPPIN        CLOUDY    66  59  77 NE5       30.08R
MTN HOME       CLOUDY    65  59  81 E5        30.09R
$$

ARZ040-041-020300-
WEST CENTRAL ARKANSAS

CITY           SKY/WX    TMP DP  RH WIND       PRES   REMARKS
MENA           MOCLDY    75  66  73 CALM      30.04S
MOUNT IDA      PTCLDY    71  64  78 SE3       30.02F
$$

ARZ009-017-025-026-028-020300-
NORTHEAST ARKANSAS

CITY           SKY/WX    TMP DP  RH WIND       PRES   REMARKS
CORNING          N/A     63  63 100 N3        30.10S
JONESBORO      MOCLDY    64  60  87 NE7       30.08S
NEWPORT        CLEAR     66  63  90 N5        30.09S
WALNUT RIDGE   CLEAR     63  57  82 NE10      30.09S
BLYTHEVILLE    CLOUDY    64  62  93 NE10      30.09S
$$

ARZ022-023-033-042-044-020300-
CENTRAL ARKANSAS

CITY           SKY/WX    TMP DP  RH WIND       PRES   REMARKS
LITTLE ROCK    PTCLDY    69  61  75 E6        30.06S
N LITTLE ROCK  PTCLDY    67  64  90 E6        30.06S
JACKSONVILLE   CLOUDY    68  64  87 E2        30.06R
SEARCY         CLOUDY    69  62  78 NE6       30.08S
HOT SPRINGS    CLEAR     70  63  78 E3        30.04S
RUSSELLVILLE   MOCLDY    72  64  76 E3        30.04S
CLINTON        CLOUDY    68  64  88 CALM      30.09S
$$

ARZ036-020300-
EAST ARKANSAS

CITY           SKY/WX    TMP DP  RH WIND       PRES   REMARKS
WEST MEMPHIS   CLEAR     65  62  90 N5        30.06S
$$

ARZ050-053-066-070-073-020300-
SOUTHWEST ARKANSAS

CITY           SKY/WX    TMP DP  RH WIND       PRES   REMARKS
ARKADELPHIA    FAIR      72  69  90 CALM      30.04S
CAMDEN         CLEAR     66  63  88 CALM      30.04R
TEXARKANA      CLEAR     69  65  86 SE3       30.02F
EL DORADO      CLEAR     70  66  87 CALM      30.04S
DE QUEEN       CLEAR     73  65  75 CALM      30.00S
$$

ARZ056-057-069-020300-
SOUTHEAST ARKANSAS

CITY           SKY/WX    TMP DP  RH WIND       PRES   REMARKS
PINE BLUFF     CLEAR     70  64  81 NE5       30.06R
STUTTGART      CLEAR     68  61  77 MISG      30.06S
MONTICELLO     PTCLDY    70  66  87 CALM      30.05R

$$




USA.gov is the U.S. government's official web portal to all federal, state and local government web resources and services.